User: anonymous   Login
Location: Parc des �les de St-Timoth�e
(45.2924°N, 74.0481°W)
Time: 07:53:33
(UTC-04:00)
Language:

Cosmos 2173 Rocket - Orbit

View from above orbital plane
View from above orbital plane
View from above satellite
View from above satellite

Ground track
Ground track

The orbit data is extracted from the following two-line orbital elements,

1 21797U 91081B   14303.43094684  .00000050  00000-0  35149-4 0  5519
2 21797 082.9566 055.6113 0036881 259.1150 166.9248 13.77296607152141
Epoch (UTC): 30 October 2014 10:20:33
Eccentricity: 0.0036881
inclination: 82.9566°
perigee height: 946 km
apogee height: 1000 km
right ascension of ascending node: 55.6113°
argument of perigee: 259.1150°
revolutions per day: 13.77296607
mean anomaly at epoch: 166.9248°
orbit number at epoch: 15214

The dashed part of the orbit path shows where the satellite is in the earth's shadow,  

DLR